This demonstration page uses our WeatherBlox Daily Observations layout. Learn more.

Left ArrowRight Arrow

Hourly Observations for May 31, 2022

Temp ( °F °C ) Dew Point ( °F °C ) Humidity (%) Winds ( mph kmh ) Pressure ( in mb ) Visibility ( mi km ) Precip ( " mm )
12:52 am 00:52 Clear 75 23.9 63 17.2 66 66 SSE 17 28 29.79 1009 10 16 0.00 0.00
1:52 am 01:52 Clear 74 23.3 63 17.2 69 69 SSE 18 30 29.78 1009 10 16 0.00 0.00
2:52 am 02:52 Clear 73 22.8 63 17.2 71 71 SSE 18 30 29.78 1009 10 16 0.00 0.00
3:52 am 03:52 Clear 72 22.2 63 17.2 73 73 SSE 16 26 29.79 1009 10 16 0.00 0.00
4:52 am 04:52 Clear 72 22.2 63 17.2 73 73 S 15 24 29.79 1009 10 16 0.00 0.00
5:52 am 05:52 Clear 71 21.7 63 17.2 76 76 SSE 16 26 29.80 1009 10 16 0.00 0.00
6:52 am 06:52 Sunny 71 21.7 64 17.8 79 79 SSE 14 22 29.82 1010 10 16 0.00 0.00
7:52 am 07:52 Sunny 73 22.8 65 18.3 76 76 SSE 15 24 29.83 1010 10 16 0.00 0.00
8:52 am 08:52 Mostly Cloudy 75 23.9 66 18.9 74 74 S 15 24 29.86 1011 10 16 0.00 0.00
9:22 am 09:22 Mostly Cloudy 76 24.4 68 20 77 77 SSW 12 19 29.85 1011 10 16 0.00 0.00
9:52 am 09:52 Mostly Cloudy 77 25 67 19.4 71 71 S 15 24 29.86 1011 10 16 0.00 0.00
10:52 am 10:52 Cloudy 79 26.1 68 20 69 69 SSW 15 24 29.88 1012 10 16 0.00 0.00
11:52 am 11:52 Partly Cloudy 81 27.2 69 20.6 67 67 S 14 22 29.88 1012 10 16 0.00 0.00
12:52 pm 12:52 Cloudy 81 27.2 68 20 65 65 SSW 15 24 29.90 1013 10 16 0.00 0.00
1:52 pm 13:52 Cloudy 79 26.1 68 20 69 69 S 9 15 29.90 1013 10 16 0.00 0.00
2:52 pm 14:52 Cloudy 79 26.1 69 20.6 72 72 S 9 15 29.91 1013 10 16 0.00 0.00
3:52 pm 15:52 Cloudy 81 27.2 68 20 65 65 S 9 15 29.90 1013 10 16 0.00 0.00
4:52 pm 16:52 Cloudy 81 27.2 70 21.1 69 69 SSE 8 13 29.90 1012 10 16 0.00 0.00
5:52 pm 17:52 Cloudy 82 27.8 70 21.1 67 67 S 9 15 29.88 1012 10 16 0.00 0.00
6:52 pm 18:52 Sunny 82 27.8 68 20 63 63 S 10 17 29.87 1012 10 16 0.00 0.00
7:52 pm 19:52 Mostly Cloudy 79 26.1 68 20 69 69 SSE 7 11 29.89 1012 10 16 0.00 0.00
8:52 pm 20:52 Clear 78 25.6 69 20.6 74 74 SSE 8 13 29.91 1013 10 16 0.00 0.00
9:52 pm 21:52 Clear 76 24.4 69 20.6 79 79 SSE 8 13 29.91 1013 10 16 0.00 0.00
10:52 pm 22:52 Clear 75 23.9 68 20 79 79 SSE 8 13 29.91 1013 10 16 0.00 0.00
11:52 pm 23:52 Clear 75 23.9 68 20 79 79 S 9 15 29.92 1013 10 16 0.00 0.00

Powered by AerisWeather